Theta_e
308 308 307 307 306 306 306 306 305 306 306 306 306 307 308 309 309 310 310 311 311 310 311 311 311 311 311 310 309 309 308 309 309 309 311 313 315 313 312 313 316 319 314 322 338 341 338 335 335 341 346 350 351 351 353 353 355 355 357 359 357 354 355 355 357 358 356 356 358 358 359 356 357 359 359 356 354 354 353 353 352 351 349 347 348 349 349 349
310 310 310 309 309 308 307 307 306 307 306 307 307 308 309 309 310 310 310 311 311 311 311 311 311 311 311 310 309 309 308 309 310 311 312 313 314 312 312 313 317 318 315 328 342 336 333 333 333 341 346 350 352 352 354 354 355 354 356 357 357 356 356 356 356 358 356 357 358 357 359 358 358 359 358 355 355 356 354 352 352 351 349 347 348 349 350 349
311 311 311 312 312 311 311 310 310 309 309 309 310 310 311 311 311 311 311 311 311 311 311 311 312 311 310 309 310 309 308 311 317 320 320 318 314 314 313 312 318 317 317 333 339 332 331 332 334 341 346 351 352 353 354 353 355 355 357 357 354 354 356 356 357 358 357 358 359 358 359 359 358 357 357 357 356 355 353 352 353 351 349 348 348 348 348 348
310 310 311 311 312 312 313 313 313 312 313 312 313 313 313 313 313 312 312 312 312 311 311 311 311 312 310 309 309 308 311 318 326 330 328 322 315 315 313 312 320 315 322 336 334 330 330 330 335 339 346 352 352 354 353 353 356 354 354 353 350 349 352 355 358 358 358 358 358 359 358 357 358 356 357 358 355 353 351 352 353 351 349 348 347 347 347 347
310 310 311 311 312 313 313 313 313 314 314 314 314 314 314 314 314 314 313 313 312 311 311 311 311 312 309 309 309 308 315 323 330 336 330 321 316 316 312 314 319 315 326 337 331 330 329 331 336 338 345 349 350 353 352 353 355 353 352 350 349 347 347 351 356 356 357 358 358 359 358 357 357 357 357 356 355 353 350 351 352 351 349 348 347 346 346 345
312 312 311 312 312 313 313 314 314 314 314 314 314 314 315 314 314 315 314 314 313 312 312 312 312 310 308 310 308 308 318 326 331 335 327 319 317 314 311 315 318 317 331 336 330 330 327 331 335 337 344 346 349 350 350 353 351 352 352 348 346 346 346 347 352 355 357 359 359 358 358 358 357 357 356 354 356 354 350 350 351 351 349 347 346 345 345 345
313 313 313 312 313 313 313 314 314 314 314 314 314 314 315 314 315 314 315 314 313 313 312 312 311 309 309 308 308 313 320 327 330 328 321 317 316 312 312 316 316 322 335 334 329 329 326 331 333 336 342 343 348 349 350 352 350 352 349 346 345 344 344 344 347 354 358 360 359 357 357 358 358 358 356 355 356 354 350 349 350 351 348 346 346 344 345 345
314 314 314 313 313 313 313 314 314 314 314 314 314 314 314 314 315 314 314 314 314 313 312 312 311 308 309 307 314 322 322 327 330 324 316 315 314 311 313 315 317 329 338 332 329 327 326 331 332 335 339 339 347 349 349 349 349 350 347 347 345 342 342 340 344 352 356 357 357 358 358 358 359 358 356 356 356 353 350 349 350 349 347 346 345 344 344 345
314 314 314 314 314 313 313 313 314 314 314 313 314 314 314 314 314 314 314 314 314 313 312 312 310 308 308 308 317 325 326 329 326 319 314 312 311 310 314 316 322 336 337 330 329 326 327 330 330 333 333 336 343 347 348 348 348 349 347 346 342 342 341 339 342 349 355 357 357 358 358 359 358 357 358 356 354 353 350 348 350 348 346 346 344 344 344 344
314 314 314 314 314 313 313 313 314 314 313 313 313 314 314 314 315 315 314 314 313 313 313 311 309 309 307 311 320 323 329 329 322 319 315 310 310 311 318 322 328 336 332 327 328 325 327 328 328 330 329 333 338 343 348 346 347 347 345 344 340 342 342 342 344 348 355 357 358 357 356 358 358 357 359 357 352 352 350 349 349 347 346 346 345 345 344 344
314 314 314 313 314 313 313 313 313 314 313 313 313 314 314 315 315 315 315 314 313 313 312 309 308 308 308 316 325 324 329 328 323 324 320 313 311 315 324 328 329 332 327 326 327 325 327 326 326 327 327 333 334 341 348 345 344 344 342 341 340 343 344 345 346 350 355 357 359 358 356 358 357 355 357 355 354 353 349 350 348 347 347 345 346 346 345 344
314 313 313 313 313 313 313 313 313 313 313 313 313 314 314 315 315 315 315 313 313 313 311 309 309 308 314 323 325 325 329 328 325 327 325 321 319 321 329 329 327 328 325 326 326 325 326 325 326 326 328 333 334 340 345 344 343 341 341 340 340 342 343 347 350 351 355 356 357 357 356 356 356 355 356 355 354 352 349 350 348 347 347 345 346 345 345 345
313 313 313 313 313 313 312 313 313 314 313 313 313 314 315 315 315 315 315 313 312 311 309 310 310 310 321 328 322 325 330 327 326 329 329 327 325 326 329 328 326 326 325 325 324 325 325 324 326 326 329 332 335 339 341 344 342 340 341 339 340 342 343 349 350 352 357 356 356 355 351 352 357 355 357 356 354 353 349 350 349 348 347 346 346 345 345 345
314 314 314 314 313 313 312 312 313 314 314 314 313 315 315 315 315 314 313 311 310 310 310 313 313 316 325 328 321 325 330 327 326 328 329 328 327 326 327 327 326 325 325 324 324 324 324 324 324 325 329 332 336 337 338 342 342 341 340 339 340 338 339 347 347 354 358 355 357 354 346 349 357 355 356 356 354 354 350 350 350 348 348 347 346 345 345 346
315 315 314 314 314 313 312 312 313 314 314 314 314 315 315 315 315 314 312 311 311 311 312 314 314 321 330 327 322 324 326 327 326 327 327 327 326 324 325 326 325 324 324 323 324 324 323 323 324 326 330 332 334 335 337 340 341 342 336 333 337 335 339 346 347 355 356 355 357 353 346 350 357 356 356 355 354 355 352 351 350 349 349 347 347 345 344 346
315 314 314 314 314 313 312 312 313 314 314 314 314 315 315 316 315 313 312 313 313 310 314 320 318 323 332 327 323 323 324 326 326 326 326 326 325 323 324 324 324 324 323 323 324 324 323 323 324 326 329 331 332 334 337 337 337 342 336 331 333 333 338 341 345 355 355 355 356 352 350 352 355 357 356 355 354 354 354 352 351 349 349 349 348 346 345 346
314 314 314 313 313 313 312 312 313 314 314 314 315 315 314 316 315 313 314 315 314 311 317 327 325 324 329 326 324 324 325 327 325 326 326 326 326 324 323 323 324 323 323 323 323 324 323 323 323 324 326 329 331 333 333 330 331 338 337 333 334 335 337 336 342 353 353 354 355 352 354 353 353 356 356 355 354 353 354 353 352 351 349 350 349 346 345 345
314 314 314 314 313 313 312 312 313 314 314 314 315 315 314 316 315 314 316 316 316 316 319 325 326 326 327 324 324 325 327 327 325 326 326 327 328 325 323 323 324 324 324 324 322 323 323 322 325 324 325 328 331 331 328 329 333 334 334 333 334 335 337 337 340 349 352 353 353 351 355 356 354 356 356 355 355 354 356 353 353 353 351 352 350 347 345 345
315 315 315 315 314 313 312 312 313 313 314 315 315 315 314 315 315 317 320 320 321 323 324 323 324 326 325 323 325 325 325 325 325 326 326 327 327 324 324 323 324 324 325 325 322 323 323 323 324 323 325 328 331 331 329 335 339 337 338 336 334 332 335 342 342 344 350 353 353 354 356 358 356 356 355 354 355 354 355 353 354 354 353 353 351 348 346 346
316 316 316 316 314 313 312 312 313 313 314 316 315 316 318 319 321 322 323 323 322 324 323 321 323 325 323 323 324 322 322 323 325 326 325 327 326 325 325 324 324 324 325 325 322 323 323 322 324 323 324 328 331 333 332 337 340 340 340 338 336 332 335 344 347 345 342 348 352 355 357 359 356 354 354 354 354 355 354 353 354 355 355 354 352 349 347 346
316 317 318 317 315 314 312 312 313 313 315 315 314 319 324 322 322 322 322 323 321 321 321 320 322 323 322 322 321 320 320 323 325 325 325 326 327 327 325 324 323 323 324 325 323 323 323 321 324 324 325 328 330 333 334 335 338 338 338 337 334 332 335 342 346 345 341 347 352 354 356 361 357 352 354 355 355 356 354 355 356 355 355 355 354 351 349 347
317 317 318 318 316 314 312 312 313 314 316 315 315 321 322 318 318 319 319 321 320 318 319 319 321 322 321 321 320 319 320 322 325 325 325 325 326 327 326 324 323 322 323 325 323 323 321 320 324 325 326 330 330 331 334 336 336 336 336 335 331 331 333 334 338 342 341 346 352 354 355 357 356 352 355 355 354 356 357 357 358 356 355 355 355 354 351 349
317 318 318 318 316 314 313 313 313 315 315 316 319 321 319 318 318 317 317 320 319 317 317 319 320 322 321 320 319 319 319 320 323 325 324 324 325 326 326 324 323 323 323 324 323 321 319 320 324 326 327 332 332 333 335 336 335 335 336 331 329 332 330 327 331 339 340 341 345 346 345 351 353 351 352 350 349 355 354 355 356 357 358 356 355 355 353 351
317 317 317 316 315 314 314 313 314 315 315 318 322 320 318 318 318 318 318 320 319 317 317 319 320 321 320 319 318 318 320 319 322 325 323 323 325 325 326 326 324 323 323 324 325 323 321 322 324 326 328 332 334 334 336 334 333 334 335 332 331 334 333 329 331 337 339 338 340 339 334 338 348 348 346 345 345 352 354 354 354 356 358 357 356 356 355 353
316 316 316 315 315 316 315 314 316 318 318 319 320 319 318 319 319 319 319 320 318 317 318 319 320 320 318 318 317 318 319 318 321 323 321 323 324 323 325 326 324 324 324 324 324 324 324 324 325 327 331 334 334 333 334 333 330 331 333 335 334 335 335 333 334 333 330 329 335 337 328 329 340 343 344 345 344 348 352 354 355 356 357 356 357 355 355 355
315 315 316 315 315 317 318 318 319 319 319 320 319 318 318 319 319 318 320 320 317 316 318 319 319 318 318 317 317 318 318 318 320 321 320 321 322 321 322 325 326 325 325 324 325 324 325 327 329 331 333 332 332 331 332 333 328 326 331 336 335 336 334 332 331 328 324 325 334 337 329 326 334 340 346 347 346 348 350 352 355 357 358 357 357 355 355 356
315 315 316 316 315 316 319 321 319 318 320 321 319 318 319 320 319 318 320 318 315 317 318 319 319 317 317 317 317 317 316 318 320 320 319 319 320 321 322 324 325 326 326 324 322 323 326 330 331 332 332 330 328 327 329 331 326 325 331 335 334 335 334 333 331 328 327 329 332 335 332 328 330 337 345 348 349 352 351 350 355 356 357 357 357 356 356 356
315 315 315 316 315 315 317 318 319 320 320 320 319 319 320 319 318 319 320 316 315 319 319 318 318 316 316 317 316 317 317 319 319 319 319 319 320 321 322 324 325 325 327 323 320 323 328 330 330 331 330 328 327 327 329 330 327 328 332 334 335 335 334 334 332 329 331 328 324 328 329 328 330 338 344 348 349 352 352 350 354 354 353 354 355 355 355 355
315 316 316 315 315 316 316 316 319 321 320 319 319 319 319 318 318 321 320 316 317 318 318 317 316 316 317 316 317 319 319 320 319 318 318 318 319 320 321 323 324 325 327 324 323 326 329 329 330 330 328 328 328 328 330 329 329 331 331 332 333 334 334 335 333 329 329 327 322 325 327 327 331 338 343 346 346 348 350 349 350 353 354 352 354 355 355 355
315 316 315 315 317 319 319 318 319 319 318 318 318 319 319 319 319 319 317 317 317 316 317 317 316 317 317 317 317 319 319 319 319 319 318 319 319 319 321 323 324 325 326 326 325 326 329 330 331 330 327 329 329 330 331 330 329 330 330 331 330 332 334 333 332 329 326 325 323 325 327 327 332 340 344 344 344 345 347 348 349 350 352 354 354 355 354 354
316 316 316 314 316 317 318 320 321 319 318 317 318 320 320 320 321 318 316 317 316 316 317 317 317 317 317 317 317 319 319 319 320 319 318 319 320 320 322 322 323 324 324 324 324 324 326 327 329 329 327 327 328 329 331 331 330 329 330 329 326 326 328 327 327 327 324 323 324 327 328 325 329 339 346 343 344 345 346 347 348 349 351 352 355 355 353 353
316 316 316 315 314 314 317 320 319 318 317 317 319 321 322 321 318 316 316 315 314 315 316 317 317 317 317 318 318 318 319 319 320 320 319 319 319 320 321 321 322 321 318 319 321 322 324 325 326 327 326 327 326 326 328 328 328 329 328 325 321 320 322 322 322 323 322 323 325 328 329 325 328 339 345 343 344 344 345 347 348 350 351 351 352 354 353 353
316 316 315 315 314 314 316 317 316 315 316 317 320 323 322 319 316 315 315 314 313 315 317 317 317 317 317 317 318 319 318 318 320 320 319 320 319 320 320 320 322 321 318 318 318 317 319 322 323 323 324 327 326 324 322 323 325 327 324 321 319 318 320 321 321 322 322 322 325 327 327 329 334 341 343 342 343 344 346 347 348 349 351 351 351 352 354 354
316 315 315 316 315 315 315 314 315 316 317 320 322 322 321 317 316 315 315 315 315 316 317 317 317 317 317 317 317 318 318 318 319 319 319 319 319 319 320 320 321 321 321 318 317 316 315 317 320 320 322 324 325 324 322 323 324 326 326 324 320 318 320 320 319 321 321 321 323 325 325 329 334 339 342 342 342 344 345 345 347 348 349 351 351 351 354 354
317 317 317 317 317 316 315 314 314 315 318 322 322 321 318 315 315 315 315 316 316 316 316 317 317 316 316 317 318 318 318 317 318 319 318 318 318 318 319 320 320 321 320 318 317 317 315 315 319 320 321 323 323 323 324 323 323 324 326 324 320 321 322 319 318 320 320 319 319 321 325 331 336 339 342 342 342 343 343 345 346 346 348 349 349 350 352 353
319 321 320 319 318 317 315 315 314 314 318 323 321 319 317 315 315 316 316 316 316 316 316 316 316 315 315 316 317 318 318 318 318 318 318 319 318 318 318 319 320 320 320 319 318 317 315 315 320 320 320 322 322 322 323 322 321 323 324 321 323 327 325 319 318 319 319 319 319 322 327 333 336 339 341 340 340 341 342 343 344 345 347 347 348 349 349 351
321 322 320 318 317 317 316 314 314 316 320 322 319 317 316 316 317 316 316 317 316 317 316 314 315 315 314 314 316 317 318 317 318 317 317 317 317 317 318 318 318 319 320 320 320 320 318 315 319 320 319 321 322 322 323 324 323 322 320 322 325 328 326 322 319 318 317 317 318 321 327 330 332 337 341 340 340 340 339 341 343 344 345 346 347 347 348 349
318 321 320 318 317 317 317 316 316 318 322 321 318 317 317 317 317 316 317 317 316 317 316 314 315 316 314 314 315 317 317 315 316 317 316 316 317 317 318 318 318 318 319 320 320 322 320 315 317 321 320 320 322 321 321 322 324 323 321 324 324 321 321 322 321 319 317 316 316 320 326 327 328 334 339 339 340 339 338 340 340 342 344 344 345 345 347 348
319 321 321 318 317 316 317 317 318 320 321 319 317 317 317 316 317 317 317 317 317 317 317 316 316 316 316 315 316 317 317 315 316 317 316 316 317 317 318 318 318 318 319 320 320 321 322 317 315 319 321 320 321 320 318 319 322 324 323 324 325 322 320 321 322 321 318 317 317 319 323 326 329 335 339 338 339 339 338 338 339 341 342 343 343 344 345 347
320 321 320 318 316 317 317 318 320 320 319 318 317 317 317 317 317 317 317 317 318 317 317 317 316 316 317 317 316 317 317 317 317 317 316 317 317 317 317 317 318 319 318 320 320 320 322 319 315 318 320 318 318 319 319 319 320 321 321 321 322 322 323 322 322 321 318 317 317 317 323 329 334 338 339 338 338 337 337 338 338 340 341 341 342 342 343 345
320 320 319 318 317 317 318 319 320 319 318 318 318 317 317 317 317 318 317 317 317 317 317 318 317 317 317 316 317 317 317 318 317 317 317 317 317 316 316 317 318 318 319 319 320 319 321 320 316 316 317 316 318 320 320 320 320 321 320 320 321 321 321 321 320 321 318 317 317 317 322 330 335 336 337 336 336 337 337 338 338 339 339 340 341 341 341 342
321 320 319 317 316 317 318 319 319 319 318 317 317 317 317 317 317 317 318 318 318 317 318 318 318 318 317 317 317 317 317 317 317 318 318 318 318 316 316 317 317 319 319 318 318 318 320 321 318 315 316 317 319 320 320 320 321 322 321 322 323 322 320 318 318 319 318 318 321 322 323 329 334 335 336 336 336 337 337 337 338 338 339 339 340 340 340 340
320 319 318 316 316 318 319 318 318 318 318 317 317 316 317 317 317 317 317 318 317 318 318 318 318 318 318 317 317 317 318 318 318 318 318 317 316 315 316 317 318 319 319 318 319 318 318 321 319 316 318 319 319 319 320 320 320 320 321 322 322 322 322 320 320 322 320 318 320 323 325 330 333 335 337 335 336 337 336 337 337 337 338 339 339 339 338 337
319 318 318 316 317 318 318 318 317 317 317 317 317 316 316 317 317 316 317 317 318 318 317 317 318 318 318 318 318 318 318 317 318 318 318 317 316 315 316 317 318 319 318 318 319 318 317 320 319 317 317 317 317 317 317 318 319 319 321 322 322 323 323 323 323 324 322 321 319 321 325 330 332 335 336 334 335 336 335 336 336 336 337 337 338 338 337 336
320 319 319 316 317 318 318 318 318 317 317 317 316 316 316 315 316 316 316 316 317 318 317 317 317 317 318 317 318 318 318 318 318 318 318 316 315 315 315 316 317 317 315 316 318 318 319 320 320 318 317 316 316 316 316 317 318 319 320 321 321 322 322 322 321 320 320 323 323 322 326 330 333 334 334 333 334 334 335 335 335 335 336 336 337 337 337 336
321 320 320 318 317 318 318 318 318 318 317 317 317 316 315 315 315 315 316 316 317 317 317 317 317 317 318 317 318 318 317 318 318 318 318 316 315 315 315 315 315 314 314 315 316 317 320 320 321 321 320 319 319 319 320 320 318 317 318 319 320 321 322 321 319 319 321 322 324 327 329 330 331 333 333 333 333 333 334 335 334 335 335 335 335 336 336 336
320 319 319 320 319 318 318 318 318 319 318 318 318 316 316 315 315 314 315 315 316 317 317 317 317 317 318 318 318 318 318 319 318 319 319 317 316 315 314 315 314 313 315 316 315 317 319 318 319 321 319 318 319 319 319 320 318 318 317 317 318 319 321 321 319 321 325 322 323 331 333 329 330 333 332 333 332 332 334 334 333 333 333 334 334 334 335 335
318 318 318 319 320 319 318 318 318 318 318 317 317 316 316 316 316 315 315 315 315 316 317 318 317 318 318 318 318 319 319 319 319 319 319 318 317 315 315 316 315 314 316 316 314 317 319 317 317 318 316 316 317 316 317 318 318 318 317 317 318 318 320 322 321 323 326 324 325 333 333 330 331 331 330 332 332 332 333 333 333 333 332 333 333 333 334 334
319 319 316 317 319 318 317 316 318 318 317 317 317 317 316 315 315 316 315 316 316 316 318 318 317 317 317 318 320 321 320 320 320 320 320 319 318 317 317 317 315 315 316 316 315 316 318 318 317 316 316 316 316 315 315 316 316 316 317 316 317 317 318 321 321 323 326 327 329 333 332 330 331 330 329 331 331 332 332 332 332 332 332 332 332 333 334 333
320 321 320 319 318 318 317 317 319 318 316 318 318 316 317 316 315 315 316 317 316 316 317 317 316 316 317 318 320 320 320 320 321 320 320 319 318 318 320 318 316 316 315 315 316 315 316 318 318 316 315 315 315 315 314 315 315 315 316 316 316 317 317 318 320 321 324 326 328 331 330 329 329 330 330 330 330 331 332 332 332 331 331 331 332 332 333 333
319 318 321 323 319 317 318 317 318 319 317 318 318 316 317 317 315 315 316 316 317 317 316 316 316 317 317 318 318 318 318 318 319 319 318 318 317 317 318 318 316 316 316 316 316 315 315 317 317 314 314 314 315 314 313 314 314 313 314 315 315 315 316 316 318 320 322 325 327 328 328 328 329 330 330 329 329 330 331 331 332 331 331 331 331 332 332 332
321 318 319 321 318 316 318 317 317 319 319 318 318 318 317 316 316 317 316 315 316 316 316 317 318 317 318 318 318 317 317 317 317 317 316 316 316 316 316 315 315 316 317 316 316 316 317 317 316 313 312 313 314 314 313 313 312 311 313 315 316 316 316 317 318 320 322 325 326 326 327 328 329 329 329 329 329 330 329 329 330 330 331 330 330 331 331 331
Wind_Speed
11 11 11 10 10 9 9 10 10 10 11 13 13 13 11 10 10 10 9 9 9 9 9 10 10 10 10 10 10 9 9 10 10 12 12 8 9 11 12 16 16 16 18 16 15 15 14 14 13 12 12 11 10 10 8 7 7 4 2 1 1 2 1 2 3 4 7 10 12 10 12 13 11 9 10 10 11 14 14 12 12 12 15 21 27 31 30 29
12 11 11 11 10 10 10 11 10 11 11 13 14 14 14 13 12 11 10 10 9 9 8 9 10 10 10 9 9 8 8 8 10 14 12 9 10 11 13 17 17 18 19 18 18 18 15 15 14 14 13 10 9 8 5 5 5 2 2 0 1 4 3 3 5 10 10 10 13 12 12 12 12 13 13 11 12 14 14 13 15 18 22 27 31 31 29 29
13 12 12 12 11 11 11 11 11 11 12 13 14 15 15 15 14 12 12 11 10 9 8 8 9 9 9 8 8 8 6 8 13 14 9 9 11 11 14 17 18 18 19 18 18 17 14 14 14 15 14 10 8 7 5 5 1 1 2 2 2 7 8 6 5 13 17 13 13 13 10 10 12 15 13 12 14 14 13 14 16 21 26 29 31 31 29 28
13 13 13 13 12 12 12 12 12 12 12 13 13 14 15 16 15 14 13 12 10 9 8 8 8 8 8 7 7 6 5 8 9 6 5 7 9 11 14 17 18 19 19 16 16 16 13 12 14 15 13 9 8 9 8 5 5 3 5 2 3 5 7 7 6 10 18 16 13 13 10 9 12 11 10 11 13 11 11 15 18 21 27 30 31 31 29 27
13 14 13 14 13 13 13 13 13 13 13 13 14 14 15 16 16 15 14 13 11 10 8 7 7 7 7 6 5 4 4 4 2 5 5 7 8 11 15 18 18 20 19 15 16 15 13 12 14 15 13 9 9 9 7 6 8 5 8 1 3 3 6 7 8 7 11 14 14 14 10 10 12 11 11 11 8 7 12 16 19 22 27 30 31 30 28 27
13 13 13 14 14 14 14 14 14 14 13 13 14 15 16 16 16 16 15 13 12 9 8 6 6 6 5 5 5 4 5 3 4 2 8 7 8 11 16 18 20 22 19 16 16 15 14 14 14 14 13 10 8 7 6 8 7 2 7 2 3 3 4 5 8 8 9 12 12 13 11 10 13 13 13 12 6 5 13 17 20 23 25 29 30 29 28 26
14 14 14 14 14 14 15 15 15 14 14 14 14 15 16 17 16 15 14 14 11 9 7 6 5 5 4 4 4 4 10 8 3 4 7 5 9 13 17 19 22 24 18 17 17 15 14 15 15 14 11 9 8 8 7 8 6 3 5 1 3 2 3 4 6 8 10 11 10 14 15 12 10 13 12 10 6 8 14 18 21 24 25 27 27 27 27 26
15 15 15 15 15 15 15 16 16 15 15 14 14 14 16 16 16 14 13 13 10 8 7 5 5 5 4 4 4 7 12 6 2 5 5 5 11 15 19 21 25 23 18 19 18 16 15 15 16 13 10 7 7 8 7 7 7 6 4 1 1 0 3 3 5 9 11 12 12 12 13 8 10 14 15 10 9 12 17 20 22 25 25 25 25 26 26 24
17 17 16 16 16 16 15 16 16 16 15 14 14 15 15 14 14 12 12 11 9 8 6 5 4 4 4 4 6 9 5 4 1 4 0 8 14 18 21 24 26 19 17 19 17 16 15 14 16 13 9 6 5 7 7 5 5 6 3 0 2 1 3 2 5 11 10 11 13 11 10 11 11 11 11 12 14 16 18 21 24 25 25 25 24 25 25 24
18 18 17 17 17 16 16 15 15 15 15 14 14 14 13 12 11 11 11 10 8 6 5 5 4 5 5 4 8 7 7 6 1 2 5 10 16 19 20 21 22 16 17 19 17 17 15 13 14 12 10 8 5 7 8 5 4 7 3 2 5 1 2 3 6 12 11 10 12 10 9 10 10 7 4 11 16 17 21 22 23 25 24 24 24 24 24 23
19 18 18 18 17 17 16 15 14 14 14 14 14 13 12 10 10 11 10 9 7 6 5 4 4 5 5 6 11 4 10 6 4 7 8 11 15 18 18 17 18 16 16 17 17 17 15 11 10 10 6 6 6 7 9 5 4 6 4 5 6 2 2 4 7 11 10 9 11 12 10 6 7 6 4 12 17 18 22 22 22 24 23 23 23 23 23 22
19 19 19 18 18 16 15 15 13 13 13 13 14 12 10 9 10 9 8 8 6 5 4 3 4 6 4 8 13 2 8 7 8 9 10 12 13 16 14 14 16 15 15 15 16 15 14 10 9 13 5 4 6 6 6 6 4 5 5 7 5 6 4 3 7 11 9 7 16 17 10 4 4 6 8 13 17 19 22 22 22 22 22 23 23 22 22 21
19 19 18 18 17 15 14 14 12 12 12 13 13 10 9 9 8 7 7 6 4 4 3 4 5 7 4 9 8 4 6 9 10 10 11 11 12 12 11 13 14 13 12 13 14 13 13 9 9 15 8 8 7 1 2 7 7 6 6 6 3 7 4 3 6 8 5 4 17 14 5 5 6 7 11 14 17 20 21 22 22 22 22 22 22 22 21 21
18 18 17 17 17 15 13 12 11 11 12 13 10 8 9 8 7 6 4 2 2 3 5 5 6 6 7 6 5 7 9 10 10 11 11 11 12 11 11 13 13 11 10 11 12 11 12 9 10 14 11 13 8 3 4 8 8 8 8 6 4 6 6 6 6 9 6 0 9 6 2 7 7 7 12 16 18 20 21 21 21 22 22 22 22 21 21 21
17 17 17 17 17 15 13 11 10 10 12 12 8 8 8 7 5 2 1 1 2 3 5 5 6 5 9 6 5 9 13 12 11 12 10 11 11 11 12 13 11 9 9 9 9 11 10 9 11 12 11 13 9 5 9 8 7 9 8 7 7 6 7 7 6 12 8 4 6 4 3 7 6 7 10 14 19 19 21 21 20 21 22 22 22 21 21 21
17 17 18 18 17 15 13 10 9 9 11 10 6 7 7 5 2 2 2 2 2 3 5 3 4 6 9 4 9 12 12 12 12 12 10 10 10 12 13 12 11 9 9 7 6 9 10 9 11 12 12 10 8 7 8 7 8 9 8 6 8 7 6 6 8 13 7 6 4 3 3 6 5 8 11 14 19 19 20 21 21 21 22 22 21 22 22 22
18 18 19 19 17 16 12 9 8 8 9 7 5 6 6 4 0 3 1 1 1 3 5 1 2 8 8 1 10 14 13 12 13 13 11 9 8 11 14 13 12 10 9 7 5 8 10 11 10 10 12 9 8 9 8 9 9 8 9 5 7 8 6 6 10 14 8 6 6 2 4 5 4 9 11 14 18 18 17 20 21 20 21 21 21 22 22 22
18 19 20 20 19 16 12 8 7 7 7 4 4 4 3 3 0 3 2 1 1 3 3 4 5 7 7 9 13 15 14 13 14 13 12 9 7 11 14 13 12 12 11 9 8 10 12 12 10 8 9 8 9 10 9 10 9 9 9 4 8 7 5 5 8 15 15 10 6 5 5 4 4 8 9 14 16 15 15 18 19 19 20 20 20 22 22 22
18 19 20 21 20 17 12 6 5 6 4 2 3 3 2 2 2 3 4 4 7 5 2 9 13 4 2 15 14 13 14 13 14 14 12 10 10 12 13 11 13 14 12 9 10 13 12 11 10 8 8 9 11 13 12 10 9 11 10 7 10 7 5 2 3 9 14 11 7 5 5 6 5 6 8 14 14 16 18 19 18 17 19 19 19 21 22 22
17 18 20 21 21 17 11 5 4 4 2 1 2 3 5 5 5 5 9 12 13 8 5 10 17 2 6 16 13 13 13 13 14 14 13 12 13 14 13 12 14 14 11 9 10 13 13 9 9 9 11 13 14 14 13 11 8 11 10 8 11 6 7 4 3 7 9 8 9 8 7 9 10 9 11 16 17 19 18 19 18 16 16 17 19 20 21 21
17 18 19 20 21 17 10 5 3 1 1 1 1 5 6 4 3 0 6 12 14 11 6 8 10 4 4 11 11 14 14 14 14 14 14 14 15 14 13 14 13 10 11 11 10 11 12 10 10 13 14 14 14 14 13 12 11 11 10 8 9 7 7 8 8 9 7 5 9 13 10 7 10 11 13 15 13 13 13 16 17 17 15 16 16 18 21 21
16 17 18 19 19 15 8 4 1 2 3 3 2 6 5 7 5 4 4 8 11 11 8 7 7 5 4 6 9 13 13 14 14 16 16 15 17 13 12 14 11 9 12 12 9 9 10 10 12 15 14 12 13 13 10 11 11 10 8 8 9 6 6 6 7 8 8 5 7 15 12 8 10 10 12 13 10 8 8 11 14 16 17 16 16 17 19 20
16 16 16 16 18 13 6 2 2 4 5 5 2 4 3 4 4 4 7 9 6 11 10 10 10 8 10 7 9 14 13 13 14 17 17 15 17 13 11 13 11 11 12 11 10 8 8 10 13 15 13 12 12 11 9 9 9 8 7 7 8 7 5 4 8 8 7 4 4 8 6 9 14 11 11 14 14 12 10 9 10 12 13 14 16 18 20 21
15 15 14 15 15 10 5 1 4 5 5 4 4 3 2 3 5 5 7 10 4 10 10 11 10 9 10 8 12 16 13 13 14 17 17 17 16 10 9 13 12 11 11 12 13 10 8 11 15 14 11 10 10 9 10 9 8 9 9 8 6 9 10 4 6 9 8 6 6 5 4 7 14 13 12 13 13 16 16 14 11 10 10 10 10 12 18 21
15 14 14 14 12 9 6 2 3 3 4 5 4 1 2 3 5 6 7 9 5 9 8 10 9 6 7 9 13 14 8 10 13 16 18 17 14 9 9 12 12 10 11 14 13 11 10 10 14 14 9 10 11 10 12 11 8 10 11 10 8 12 11 5 5 8 8 6 8 8 5 6 10 9 9 10 12 14 14 14 12 12 12 10 9 10 16 21
14 13 13 13 10 8 6 2 2 2 5 5 2 1 3 4 5 6 6 7 5 9 10 13 10 6 9 13 14 10 7 8 7 13 17 15 11 8 8 10 10 8 11 14 9 8 8 5 7 10 11 13 13 10 12 12 10 9 9 8 9 12 13 9 8 9 6 4 10 11 6 4 7 8 8 5 10 13 12 13 13 13 13 13 13 12 15 21
13 13 13 12 9 6 4 2 1 3 5 3 1 2 3 5 6 5 6 6 6 8 10 12 9 7 9 13 14 8 7 11 8 9 14 12 9 9 9 8 8 8 9 11 7 8 9 10 8 10 11 12 11 9 10 12 11 8 11 13 9 9 11 10 9 8 6 4 9 10 8 4 5 6 6 4 8 10 10 11 11 11 11 13 14 14 15 17
13 13 12 11 9 6 4 2 3 5 4 1 3 4 4 6 5 3 6 4 6 7 7 7 6 7 8 12 14 6 6 14 11 10 11 11 12 11 9 7 9 8 8 11 8 6 8 10 11 12 11 10 9 9 8 11 11 4 7 14 12 10 10 9 8 7 7 5 6 10 10 6 4 4 3 5 7 6 6 9 10 11 13 14 15 16 16 15
13 12 12 11 9 8 5 2 3 5 5 3 5 5 4 6 4 5 6 1 5 5 5 7 7 9 10 12 12 6 7 8 6 11 12 12 14 10 7 6 12 8 8 13 8 6 9 10 11 13 11 8 8 9 7 10 11 2 3 7 9 12 12 10 9 8 8 8 7 10 13 8 4 3 3 4 6 4 5 7 6 10 16 18 19 16 16 16
11 12 13 13 10 7 8 5 4 5 5 4 5 4 5 5 5 7 4 3 5 6 6 6 9 12 14 13 10 9 9 4 6 14 13 11 15 11 5 1 9 7 9 15 8 2 7 8 9 9 5 3 8 9 6 8 11 4 5 7 8 9 10 8 8 7 8 9 9 12 14 10 3 1 3 2 3 2 3 5 4 4 10 14 16 15 16 19
11 13 15 15 11 7 8 6 4 6 7 5 3 4 6 6 6 6 2 2 3 8 7 6 9 12 14 12 8 9 9 7 11 14 10 9 12 12 5 2 6 5 7 12 6 2 5 6 7 5 1 2 6 5 5 6 10 4 4 8 7 7 7 7 7 8 9 9 10 11 12 11 6 3 2 3 4 4 5 5 6 6 5 6 9 13 19 23
11 13 15 15 14 8 7 6 6 10 9 4 3 6 6 5 5 3 3 3 3 7 8 7 9 12 14 12 9 9 9 8 11 12 9 10 9 9 7 4 6 7 7 10 9 7 6 5 6 5 3 5 5 4 6 7 8 6 7 9 8 7 7 7 8 8 9 8 9 12 13 9 4 6 7 6 6 6 8 7 8 8 6 4 3 8 15 20
10 12 13 15 16 11 7 7 7 7 6 4 5 7 6 4 2 1 3 4 3 4 4 6 11 13 12 11 9 10 9 7 9 9 6 6 6 7 5 3 4 4 6 10 9 7 7 5 6 8 7 9 8 6 6 6 8 8 8 9 8 7 8 9 8 7 8 9 9 13 13 7 6 7 9 9 8 8 11 10 10 10 9 7 4 3 8 14
9 11 13 15 18 17 12 10 6 3 4 5 6 7 5 2 0 1 1 3 4 4 5 8 11 11 10 9 8 8 7 6 7 6 5 6 5 7 6 4 3 6 6 9 8 7 7 5 8 8 6 12 13 9 4 3 8 11 9 9 8 7 6 7 8 8 8 9 10 11 9 7 9 7 8 11 10 10 12 12 11 11 9 9 8 5 5 11
9 10 12 14 15 16 16 14 9 3 4 7 8 6 3 0 2 0 2 3 4 7 7 9 11 11 10 9 8 6 2 4 8 7 7 7 4 5 5 3 1 6 9 5 7 9 7 5 8 5 5 12 13 6 6 8 7 9 9 9 8 8 7 7 8 9 9 9 10 8 4 5 8 9 10 11 10 11 12 13 13 12 11 11 11 9 8 10
7 7 8 9 8 11 12 12 11 5 4 8 7 3 1 3 3 3 3 2 2 6 8 9 9 10 9 7 8 7 3 3 8 7 4 4 5 4 1 2 3 6 8 5 4 8 6 6 10 7 5 9 6 3 7 9 5 6 9 10 6 5 7 7 8 10 10 10 9 8 7 8 9 9 10 10 10 10 10 13 14 13 12 12 13 12 9 8
6 5 4 5 6 9 8 7 9 6 6 8 5 2 2 3 4 4 2 3 4 2 7 9 6 6 7 8 8 10 8 6 7 6 5 5 4 5 2 2 4 7 8 8 5 3 2 5 10 9 7 7 5 5 8 10 7 5 7 7 3 2 6 7 6 9 11 10 10 11 11 10 9 7 8 11 10 10 9 10 12 13 13 13 15 14 12 9
7 6 4 2 7 9 6 4 6 6 9 7 0 2 3 4 4 4 3 3 2 2 6 5 3 3 6 7 7 9 10 8 7 7 6 6 3 4 3 1 4 6 8 10 5 1 2 3 9 8 5 8 8 7 7 10 12 8 4 4 4 4 6 6 5 7 10 10 9 13 14 9 7 7 8 10 9 10 9 8 9 12 14 14 15 15 14 12
8 9 4 3 8 7 5 5 7 9 9 4 3 3 2 5 6 5 4 3 1 3 5 1 2 4 4 5 7 9 8 7 7 7 3 3 2 3 3 3 3 4 7 10 6 1 4 2 6 7 6 8 8 8 8 9 12 9 6 5 6 5 6 7 6 6 8 9 9 12 13 5 3 6 7 8 7 6 7 6 7 11 14 15 16 16 17 15
9 8 2 6 8 5 5 8 10 9 4 1 3 3 4 6 7 7 5 4 3 3 5 1 4 5 2 4 6 7 5 5 5 4 2 4 4 4 4 4 4 5 4 7 6 2 5 4 3 7 7 7 6 6 3 2 6 8 7 7 7 4 5 6 7 7 7 9 9 9 9 6 6 7 8 8 6 4 5 6 7 10 13 14 16 17 17 17
8 5 5 8 6 5 8 9 5 2 1 3 4 6 5 4 5 6 5 4 2 3 6 5 1 2 3 4 5 5 3 4 4 3 4 4 4 4 4 5 5 5 4 5 4 1 3 5 3 7 7 6 4 4 4 7 5 2 6 7 7 8 7 5 7 9 9 8 6 5 6 9 8 5 6 7 6 5 5 6 8 10 12 13 16 17 17 18
9 3 7 9 5 6 10 4 1 2 2 4 5 7 4 3 3 4 4 4 3 2 3 5 5 3 1 1 2 4 3 2 2 2 5 7 8 7 6 6 6 7 6 3 2 3 4 6 4 4 3 3 7 7 5 7 9 7 5 5 4 7 8 7 8 7 8 10 2 3 4 8 7 6 6 6 7 7 7 7 8 10 12 12 14 16 17 18
5 4 7 6 3 7 9 1 3 1 3 5 4 6 5 4 4 4 4 4 4 2 2 2 3 3 2 1 1 3 3 2 3 3 5 8 9 9 7 8 8 7 7 2 2 3 4 6 4 2 4 4 6 3 1 3 6 8 6 4 4 5 5 6 5 3 6 11 6 5 7 6 7 7 7 7 9 9 8 8 8 9 11 11 13 15 16 18
3 4 6 5 3 8 7 1 3 2 4 4 5 6 6 7 8 6 6 6 5 3 3 4 4 3 3 1 0 2 1 0 2 3 4 6 6 7 8 9 9 7 7 6 4 5 3 4 4 3 4 4 3 5 6 5 6 7 4 2 4 7 8 7 6 4 4 7 7 5 7 8 8 8 9 9 9 9 9 9 9 9 9 10 12 14 15 17
4 1 3 6 4 5 4 4 3 4 5 4 5 6 5 6 7 7 7 7 7 5 3 4 4 3 3 1 2 3 1 0 2 3 4 6 6 6 8 9 10 9 9 10 10 8 4 2 3 3 4 5 4 4 3 6 8 6 2 0 3 6 7 7 5 5 6 4 6 2 7 10 10 10 10 9 8 9 9 9 9 9 9 10 11 12 14 16
6 1 2 4 4 5 7 6 4 3 4 3 4 3 4 5 5 5 6 5 6 6 4 4 3 2 2 1 3 4 2 2 3 4 5 5 5 5 6 7 9 9 8 8 10 8 4 1 2 3 3 2 2 3 4 2 7 7 5 4 3 2 4 6 7 6 5 4 1 6 12 13 13 12 10 10 9 8 9 9 9 9 9 9 11 11 13 14
5 3 3 3 3 4 5 4 4 3 1 1 1 1 3 4 5 4 4 4 3 3 3 4 3 1 2 2 3 4 4 4 5 5 6 5 5 6 4 5 8 6 5 4 5 5 4 3 2 2 2 3 4 5 6 4 1 4 4 4 2 0 3 8 7 3 5 6 4 11 15 14 14 13 11 10 9 8 8 8 8 8 8 9 10 11 12 14
3 3 4 3 3 2 4 5 5 4 3 2 1 1 2 4 3 4 4 4 2 3 2 2 2 2 3 1 1 4 4 4 5 5 4 4 4 5 4 4 5 3 3 3 3 3 5 3 2 3 3 1 3 3 3 4 2 1 1 1 1 1 3 5 3 4 6 3 5 11 13 13 12 13 12 10 10 9 7 6 8 8 8 9 10 11 12 14
3 4 4 1 2 4 5 3 3 4 5 3 1 1 3 4 5 5 4 3 4 4 4 2 3 3 3 2 1 3 3 1 4 4 2 2 2 2 2 3 3 2 2 2 2 2 5 1 2 2 3 1 1 1 1 2 2 3 4 3 2 3 2 2 1 2 3 4 10 11 12 11 10 12 12 9 10 12 8 5 6 7 7 8 9 11 12 14
6 4 3 1 3 5 3 1 0 2 4 1 0 2 3 4 6 5 5 5 4 4 4 4 6 4 4 3 2 5 5 4 3 5 2 0 0 1 1 1 2 2 2 1 1 1 3 0 1 3 5 5 3 2 4 4 4 6 6 5 4 6 4 3 2 2 3 6 9 10 10 9 8 12 14 10 8 11 10 7 6 5 6 7 7 10 12 12
7 4 3 3 3 3 2 1 0 1 3 2 1 3 3 4 6 6 6 8 7 6 5 5 7 6 6 7 7 7 7 5 5 5 2 1 2 1 1 2 1 1 0 1 0 2 3 1 3 4 6 6 6 5 6 5 6 8 9 8 7 7 7 6 4 3 4 6 9 9 8 7 7 11 15 11 9 10 9 8 7 4 5 6 6 8 11 11
6 2 3 6 1 1 2 1 1 2 2 5 3 2 3 5 6 3 3 6 6 7 6 4 4 4 6 8 8 7 7 6 6 5 2 2 3 1 1 1 1 2 1 0 1 2 3 2 3 5 6 5 7 6 5 4 7 8 8 10 11 8 7 6 5 3 2 4 7 6 5 8 8 8 10 11 11 10 8 7 6 4 3 4 5 6 9 10
Wind_Direction
359 357 352 350 345 339 332 326 324 322 320 319 319 320 320 321 320 318 317 314 310 307 306 310 311 311 312 310 305 300 292 288 287 280 269 249 229 233 220 212 209 197 188 176 177 185 187 194 197 199 203 209 226 239 242 239 240 253 15 9 24 85 77 84 128 131 119 141 151 167 170 148 137 140 139 131 135 139 133 126 117 115 127 131 136 140 143 145
354 352 350 347 341 337 330 325 323 318 317 315 315 316 317 317 317 315 314 313 310 306 303 307 309 310 313 308 307 301 293 297 286 279 269 241 236 232 217 207 198 196 185 174 185 187 186 194 191 196 203 210 217 220 244 238 227 228 82 284 215 96 123 175 130 127 142 155 147 148 154 151 147 149 154 145 146 147 134 130 122 117 122 128 136 141 144 146
351 349 346 343 339 334 326 323 320 316 315 313 314 314 313 313 313 312 311 311 310 308 303 303 307 309 310 310 306 296 298 304 284 276 265 239 236 224 215 206 193 190 182 178 189 189 192 197 188 197 205 214 215 206 223 209 198 320 170 182 94 104 135 166 122 133 155 163 149 141 142 151 151 150 159 154 148 149 140 138 132 127 130 136 141 144 147 150
349 346 342 340 336 330 325 322 318 317 316 314 313 311 309 308 308 310 309 310 311 308 305 300 306 307 307 308 295 293 311 296 270 232 215 237 235 220 210 199 190 182 175 182 192 193 203 201 195 206 213 219 216 214 228 184 133 257 235 115 104 133 121 130 119 135 155 159 147 138 135 150 157 147 143 150 151 149 146 145 142 139 139 142 145 146 151 153
348 345 340 336 332 328 324 320 318 318 317 316 313 310 306 304 304 306 306 308 309 308 306 298 302 303 301 301 282 285 302 287 166 154 235 257 239 217 200 192 184 171 168 186 197 199 208 202 201 213 224 228 208 208 238 203 156 225 254 165 130 146 93 122 134 129 149 148 144 143 143 162 162 141 133 149 158 142 141 147 145 143 144 146 148 148 151 155
348 345 340 335 330 326 321 318 318 316 317 316 312 308 304 303 302 303 304 304 305 306 303 296 298 294 293 286 274 264 256 280 71 249 265 253 231 207 187 184 175 164 171 193 197 201 207 201 204 212 226 233 208 202 235 222 174 190 253 208 73 78 93 130 133 131 143 145 153 146 148 174 156 137 138 146 173 169 136 141 145 145 148 147 148 150 153 157
348 345 340 336 330 324 319 316 316 315 317 315 312 308 303 302 302 302 302 301 301 303 297 292 290 280 281 267 265 251 246 266 355 290 272 231 215 188 176 178 167 163 179 199 195 200 204 199 207 212 227 236 210 203 207 213 192 179 237 150 73 66 90 119 135 142 146 152 149 136 157 179 147 134 135 130 169 176 134 135 143 144 148 148 149 152 154 157
344 342 339 335 331 325 318 315 315 316 317 316 313 306 303 304 305 305 301 297 296 295 288 282 276 262 263 232 241 250 237 243 317 292 286 203 187 170 169 171 163 165 187 202 195 197 201 202 211 213 226 239 213 201 188 199 206 209 235 111 133 314 84 119 150 145 146 156 141 138 163 140 100 131 139 142 156 148 134 135 141 144 148 150 152 153 154 158
338 337 335 332 330 325 318 315 314 315 318 318 313 306 307 308 307 308 301 295 289 283 276 269 259 244 242 203 239 254 203 110 288 283 292 170 167 161 167 168 166 173 195 199 196 199 202 206 212 217 242 263 225 205 197 203 224 242 268 336 277 344 99 147 167 155 153 158 146 151 154 106 102 133 140 154 149 138 139 137 142 147 150 152 154 154 155 158
334 332 331 329 327 323 317 312 311 315 318 318 313 308 311 310 310 310 301 294 281 267 262 255 240 230 216 190 246 248 118 98 218 109 115 157 158 160 167 172 174 185 197 195 198 203 206 212 213 226 264 280 249 217 212 193 203 239 260 262 269 344 127 206 178 159 154 159 154 148 139 125 129 126 132 150 141 141 142 139 145 150 151 154 155 154 156 159
331 330 329 328 326 322 314 309 308 312 318 319 314 313 315 314 312 308 299 289 272 255 248 235 226 220 192 214 254 242 107 116 140 118 133 149 155 162 167 180 185 192 197 195 202 205 210 220 220 225 250 266 238 215 216 182 164 224 229 236 234 179 177 197 168 155 159 165 143 123 106 109 126 126 173 151 141 148 144 141 150 152 152 155 155 154 157 160
331 329 330 328 326 322 312 305 305 309 318 317 314 317 318 317 314 306 299 287 265 243 228 211 210 192 183 246 251 209 107 141 139 134 147 144 156 166 171 188 189 194 198 198 204 205 213 225 231 229 245 294 238 208 213 184 188 219 220 236 197 173 199 155 166 161 166 150 125 123 106 109 166 156 168 154 147 151 146 145 150 153 153 155 156 154 158 161
334 332 331 329 326 322 310 302 302 308 316 316 317 321 320 320 312 301 297 286 258 231 191 172 188 171 213 249 219 144 124 150 147 145 153 151 161 169 181 190 186 198 204 202 204 204 215 225 238 239 255 273 242 168 203 190 211 219 209 241 191 184 185 137 187 145 132 126 128 148 163 148 176 166 172 170 157 153 150 151 152 154 155 156 157 157 160 162
340 336 333 330 326 322 310 301 301 307 314 316 319 324 324 321 310 304 293 267 200 186 156 162 173 170 236 245 147 157 155 147 155 154 158 162 162 167 176 181 185 201 204 205 207 205 218 226 241 250 249 249 264 352 228 206 219 220 195 211 226 212 159 161 192 107 90 104 133 179 196 141 178 186 184 176 163 158 155 156 157 155 155 158 158 160 163 162
345 340 336 330 326 322 311 302 303 305 311 317 323 329 330 323 315 314 210 161 137 161 144 164 175 187 242 230 148 172 159 152 165 159 163 166 164 169 167 173 183 192 196 204 210 205 215 227 235 244 235 237 268 279 223 208 212 221 208 195 226 226 145 168 169 109 117 151 154 221 139 136 182 193 193 180 170 164 157 160 162 158 158 159 160 163 164 162
349 346 341 334 328 323 313 304 300 302 311 318 327 333 337 336 326 171 183 114 123 158 132 133 185 221 264 217 156 172 164 167 171 161 168 168 169 173 165 170 176 176 186 194 205 201 206 225 227 232 232 223 235 237 217 208 202 214 226 206 215 210 159 179 143 118 127 130 152 247 117 125 168 197 204 193 178 167 160 161 163 162 160 160 162 164 165 164
355 352 347 341 334 325 313 302 293 298 311 318 327 339 352 357 148 165 178 153 147 154 147 121 229 236 273 166 161 176 173 170 166 164 169 171 176 172 167 171 176 175 180 187 201 197 197 215 221 226 235 227 220 226 219 214 199 200 218 219 231 213 174 177 132 125 145 145 156 155 89 103 159 193 201 202 186 167 164 163 162 164 160 162 164 165 167 165
358 355 352 348 342 332 318 299 286 296 312 316 327 340 353 354 173 167 181 203 157 157 199 222 216 246 239 184 184 181 171 163 163 168 167 173 176 167 171 174 173 174 179 190 196 195 194 202 214 219 223 224 221 218 218 216 204 205 203 199 243 221 153 171 144 146 159 157 156 136 99 98 159 182 203 219 192 165 173 166 160 163 160 166 166 165 170 168
356 354 354 351 348 341 327 302 280 297 311 305 320 322 306 272 229 210 208 211 193 193 284 190 192 273 132 164 173 161 158 159 162 168 167 169 166 165 172 171 172 177 182 188 187 193 193 194 209 218 213 211 214 214 221 225 216 221 203 186 229 208 115 120 142 158 168 160 151 150 133 134 177 188 211 228 197 181 184 159 154 165 162 168 170 168 169 169
352 351 351 350 349 345 334 307 279 302 296 270 304 272 261 239 223 199 190 209 221 244 319 178 188 246 114 147 147 140 149 159 167 171 170 166 162 167 171 170 175 184 196 187 175 190 197 204 209 213 216 208 213 221 229 237 228 234 220 200 230 207 119 124 164 192 195 165 147 165 165 156 178 184 200 216 198 189 179 151 152 161 162 170 170 170 169 170
349 346 345 346 347 345 339 312 274 285 186 206 251 244 276 308 294 185 179 214 223 236 262 194 204 268 136 140 144 151 155 164 171 169 169 168 169 173 172 178 180 185 206 191 169 185 199 220 213 210 221 211 213 221 231 240 221 229 232 207 230 220 144 143 169 185 180 138 138 159 167 172 185 181 191 206 194 181 164 154 156 154 168 176 167 171 169 170
348 344 341 343 344 345 343 320 228 155 176 159 171 245 300 1 343 338 299 251 209 206 233 212 226 250 165 150 159 167 166 167 169 166 170 174 182 187 175 186 196 182 198 193 175 184 199 228 218 208 221 218 214 212 224 240 214 220 231 202 216 206 137 139 165 170 159 154 158 160 166 179 185 183 182 185 179 173 161 157 155 159 177 171 163 174 171 171
347 342 340 344 346 347 342 329 164 172 172 155 176 268 314 7 331 314 290 277 194 180 207 201 206 193 175 186 174 180 185 172 166 165 173 184 192 201 186 191 207 188 189 193 189 193 196 220 220 208 214 217 212 199 204 225 213 224 227 203 203 185 183 182 167 168 161 162 163 170 184 159 161 178 182 179 167 156 162 161 151 165 178 168 170 176 171 177
349 347 348 351 352 356 353 36 157 177 172 191 255 283 321 338 323 318 282 277 207 168 189 189 200 191 172 173 174 194 198 169 171 168 173 193 192 198 203 200 209 198 192 194 199 210 205 210 214 205 203 207 204 196 204 212 208 223 227 220 201 196 222 214 149 168 164 148 143 179 234 150 156 173 174 178 159 140 155 162 152 165 174 178 192 181 171 180
359 360 360 1 8 22 28 71 151 184 199 222 241 244 302 313 314 317 289 270 201 158 171 181 203 196 153 164 182 204 197 156 177 171 173 200 192 182 205 208 217 203 185 194 204 215 216 209 203 188 175 197 208 207 209 211 213 216 218 226 216 210 218 173 149 195 188 173 163 180 219 145 146 148 141 164 151 136 155 161 159 170 171 183 200 193 182 181
5 6 6 9 20 34 33 59 145 210 224 218 197 226 289 308 307 308 288 257 177 147 162 176 191 179 165 180 182 199 196 150 153 160 174 204 202 202 211 197 220 218 183 193 210 223 210 176 177 176 176 201 217 219 210 212 225 216 197 212 232 229 215 179 183 217 219 180 163 184 213 123 120 105 93 121 133 139 163 165 165 169 168 180 187 199 199 181
3 6 7 11 20 26 7 333 246 240 238 208 193 278 293 297 303 308 269 236 166 155 165 164 171 162 163 180 180 198 182 142 138 165 184 202 201 228 236 187 209 226 186 186 207 223 193 153 169 197 196 205 217 221 208 209 230 227 197 199 215 235 222 198 204 225 227 140 144 194 219 156 134 113 98 109 119 131 154 157 165 172 171 183 184 195 210 191
357 360 1 5 9 8 349 304 247 253 271 298 265 279 296 292 300 283 253 217 136 156 166 142 142 152 154 179 196 221 133 142 165 171 178 201 193 211 237 203 208 212 181 192 194 184 176 168 185 202 207 208 210 217 202 201 223 245 207 200 195 215 229 226 232 234 228 205 177 204 211 179 136 102 121 156 131 119 127 128 148 169 172 191 199 192 203 211
352 358 359 356 353 352 346 315 249 275 299 290 267 276 287 286 283 252 252 181 138 168 156 135 146 169 174 180 194 198 152 163 174 145 161 200 199 222 273 223 211 196 179 212 210 152 169 191 198 202 212 208 201 213 193 195 212 112 85 204 202 214 226 233 237 232 231 237 223 200 197 190 129 118 196 171 129 125 126 112 125 154 156 178 200 192 191 204
349 358 359 354 353 345 323 296 257 282 296 268 263 282 274 265 251 238 219 158 179 159 143 161 161 169 181 180 179 178 171 153 119 142 167 188 192 222 292 251 222 199 184 219 238 144 158 175 199 206 214 223 215 209 171 194 218 149 119 204 208 213 222 227 230 229 227 227 229 217 202 190 142 144 225 134 87 67 90 92 84 108 131 159 183 185 190 196
345 348 351 350 347 324 300 286 246 271 287 276 271 269 254 236 240 247 182 154 184 147 157 181 155 165 184 181 168 169 168 143 143 159 172 172 182 205 203 185 228 198 188 210 210 149 146 159 201 200 105 291 245 199 148 208 229 183 165 204 198 199 213 219 215 223 230 218 218 224 212 199 184 185 192 111 87 50 46 61 64 58 81 139 168 179 191 193
341 340 343 347 348 335 307 297 274 273 272 259 246 252 247 222 228 248 141 173 195 165 176 170 155 179 191 177 160 164 163 152 167 174 169 172 179 190 194 199 199 189 197 198 175 168 181 180 185 180 199 241 242 184 168 214 228 200 200 208 201 194 195 209 211 212 226 226 218 215 214 210 159 134 145 118 91 77 65 55 53 53 56 78 145 169 180 186
346 346 351 360 5 4 333 308 298 279 253 234 248 251 253 234 229 288 159 171 166 164 179 167 169 185 186 172 161 165 164 157 181 185 163 175 174 164 196 251 235 236 215 187 171 167 172 158 161 179 202 211 224 220 187 194 206 205 211 207 205 202 192 204 211 208 219 226 222 213 209 189 121 129 140 116 89 79 75 66 58 55 50 48 61 123 164 178
346 354 8 13 11 10 1 345 335 290 217 226 244 243 251 241 143 296 167 122 128 154 173 170 168 172 173 167 154 159 166 156 174 183 166 187 188 163 181 208 236 295 265 198 184 186 184 163 171 181 172 184 211 243 273 253 207 202 218 215 212 213 202 208 212 207 214 219 208 200 198 174 149 138 122 112 101 86 78 70 62 59 53 45 50 52 93 143
344 360 17 19 8 2 359 353 345 316 205 227 241 241 256 128 100 346 54 78 140 157 166 178 174 173 171 163 156 169 218 170 175 193 192 189 173 148 168 159 139 302 290 231 187 192 195 138 133 122 119 175 200 239 277 272 219 194 219 225 222 224 216 222 226 215 212 219 207 184 152 121 132 130 128 127 112 93 81 75 66 57 54 47 47 43 41 90
342 346 9 17 2 348 348 347 341 327 231 249 259 258 24 53 34 5 32 357 247 156 168 187 186 181 171 157 165 180 224 199 181 187 170 124 76 66 76 38 5 317 320 308 221 194 184 125 130 142 155 181 214 258 236 252 241 190 209 216 219 249 253 240 224 215 213 216 207 174 129 116 133 140 141 133 110 96 81 73 67 53 52 51 47 44 32 54
326 299 321 359 355 346 347 345 336 312 249 261 286 3 41 57 24 4 27 313 299 181 188 189 182 192 179 168 171 173 179 183 184 180 152 141 93 38 6 44 1 330 337 322 284 183 159 134 151 174 174 171 221 250 230 251 267 220 206 218 215 272 284 275 238 214 209 213 205 171 150 151 159 152 145 141 120 103 86 70 68 55 50 50 44 42 37 36
319 280 260 349 358 344 335 337 330 289 255 257 54 48 18 59 44 20 19 313 291 255 244 205 170 231 203 179 164 162 175 180 185 186 164 160 135 22 341 32 21 344 328 307 295 145 230 152 145 175 176 160 193 221 220 238 254 266 304 296 258 221 229 245 249 221 201 212 212 169 157 173 182 163 153 146 120 102 94 73 67 59 49 47 44 38 36 37
292 266 229 26 355 335 321 315 299 275 263 250 122 102 56 67 57 43 25 327 295 293 290 228 180 247 224 182 159 158 186 193 181 187 170 139 115 48 3 354 2 353 328 303 304 324 265 238 145 170 166 156 185 205 204 210 223 246 287 266 241 243 227 215 227 230 202 211 215 171 157 161 142 132 130 122 104 97 99 83 65 58 50 46 44 37 35 37
288 267 123 31 343 328 318 297 280 270 269 63 87 85 72 67 59 55 35 337 313 330 335 339 214 232 181 158 159 158 200 199 168 176 149 109 102 84 53 12 341 349 338 290 289 285 252 251 156 153 161 171 184 193 215 231 208 218 234 219 208 229 241 224 225 237 229 218 216 196 169 126 96 108 110 108 101 87 91 93 75 60 53 47 44 40 37 36
289 271 62 22 330 307 298 285 275 276 102 82 70 73 51 15 41 58 47 12 348 349 346 343 304 177 146 159 163 160 188 174 151 145 126 109 79 71 59 16 340 331 316 254 245 241 255 255 184 151 177 191 133 70 3 347 343 269 231 221 208 210 219 226 223 226 239 238 233 226 179 129 112 125 122 115 113 100 91 91 79 65 56 49 45 42 40 39
283 302 30 7 328 296 289 276 77 20 75 82 73 80 53 334 13 38 32 20 10 18 360 1 24 47 135 143 144 169 172 142 138 119 94 73 46 49 52 13 336 310 300 253 153 38 330 272 232 138 132 123 89 60 355 334 330 315 284 272 250 219 214 222 219 212 232 240 229 74 140 131 113 126 131 123 116 105 91 84 81 72 60 50 48 46 43 42
319 19 30 20 341 302 296 209 105 39 86 92 83 78 57 25 36 30 18 10 2 26 51 56 45 19 18 51 170 169 136 59 56 73 87 83 59 47 42 12 344 321 313 313 103 30 320 257 245 88 82 88 91 84 325 322 299 273 255 274 290 272 263 259 266 299 251 234 207 137 155 147 121 128 138 135 123 113 101 87 79 75 66 56 52 50 46 42
6 34 36 41 337 294 292 132 114 98 100 115 118 96 68 41 34 34 38 27 15 30 58 58 48 38 61 62 18 110 108 8 81 72 75 92 73 45 39 19 1 4 8 7 13 355 318 240 233 204 180 179 169 185 193 192 229 241 228 249 290 294 298 291 290 304 265 251 257 215 164 138 137 147 147 140 124 112 106 94 82 75 68 60 57 54 51 45
288 232 68 55 6 326 355 36 68 107 113 119 117 114 107 76 44 31 40 39 26 24 50 55 41 58 88 118 126 99 56 284 105 96 86 94 91 60 46 32 18 28 32 6 341 323 312 270 262 245 209 204 196 186 196 194 199 208 193 204 268 276 289 289 276 255 240 278 314 279 139 133 144 150 143 136 123 108 102 93 85 81 71 61 57 55 53 49
297 263 95 71 52 49 52 42 41 95 115 116 105 96 99 102 85 41 22 33 39 30 44 55 35 71 104 165 144 118 83 85 120 144 122 105 102 75 47 44 42 35 28 359 332 314 301 286 302 316 345 9 35 28 358 264 189 177 167 176 218 272 287 266 254 260 259 263 309 115 132 143 148 147 142 133 125 117 108 99 88 80 75 68 60 56 56 52
314 357 18 27 57 84 82 56 34 50 59 44 84 82 78 98 111 81 26 21 42 26 31 40 350 285 141 161 140 107 81 95 115 125 113 101 106 105 78 59 59 37 357 329 325 316 283 228 197 272 336 17 21 22 5 342 148 138 144 160 161 350 270 246 243 305 325 279 195 135 140 150 147 145 144 133 125 117 106 105 100 85 76 74 65 59 59 55
351 39 44 358 325 21 58 36 28 62 79 58 58 169 102 94 82 70 62 57 52 333 326 60 19 6 61 44 166 119 104 109 114 109 111 116 127 139 133 83 63 22 313 311 354 322 279 242 160 222 246 359 1 5 358 341 1 73 219 200 160 219 243 245 254 336 335 284 162 144 149 149 142 145 147 136 127 120 99 92 101 97 85 79 70 59 54 51
29 65 75 29 333 35 57 42 31 75 79 61 70 65 67 93 85 57 41 52 70 17 346 88 97 49 61 18 327 120 105 99 129 118 99 104 126 192 163 113 88 39 336 343 34 312 277 306 86 257 244 201 296 308 280 287 279 247 239 218 226 243 223 226 264 13 38 121 138 152 160 150 141 142 138 129 122 122 118 103 101 101 91 82 70 57 49 46
10 26 41 61 89 72 65 85 199 115 108 115 182 77 53 79 95 76 29 20 69 75 32 79 92 73 89 83 61 94 62 6 89 119 114 89 159 273 329 56 66 43 4 327 36 270 265 15 96 262 245 200 202 243 230 239 256 246 229 205 219 228 208 210 216 143 140 150 147 157 163 147 127 120 121 132 142 132 128 122 106 93 86 84 68 52 45 43
9 17 341 328 73 73 345 55 296 228 139 125 119 117 110 93 94 91 57 38 50 76 66 77 88 80 86 87 75 78 69 40 68 101 113 2 22 42 42 18 336 330 288 169 160 245 255 223 162 231 245 198 176 208 217 222 246 245 233 214 210 217 212 211 203 182 191 173 159 171 177 158 144 130 130 151 172 153 138 128 112 84 69 78 69 47 39 38
1 24 321 309 318 160 262 161 165 279 80 72 61 102 117 108 105 93 67 65 60 64 60 58 81 96 94 85 71 58 55 54 59 72 87 30 26 56 68 34 315 312 351 79 240 233 256 264 187 217 246 186 156 190 212 213 234 242 233 212 203 209 214 201 178 167 203 184 179 201 183 151 164 169 158 170 174 154 144 138 119 96 75 83 79 52 35 34